Weather in derevnya Nadvoitsy

Russia / Republic of Karelia     63°52′29″N   34°19′27″E
В апреле 2022 года жителям России запретили посещать сайт meteo.paraplan.net по решению Генеральной прокуратуры. Аудитория сайта уменьшилась в 10 раз. Владельцы сайта не видят смысла в поддержке погодного сервера в таких условиях. Сайт будет закрыт в октябре.
temp.,
°C
wind,
m/s
gust,
m/s
humid.,
%
clouds,
%
prec.,
mm/h
press.,
hPa
HPBL,
m
4 october, tue
tue400:00+5ene61178100 0.0 1012512
03:00+5ne61387100 0.4 1009561
06:00+5ene61095100 4.5 1008593
09:00+6e4696100 8.7 1008453
12:00+9sse378969 0.1 1008471
15:00+10sse368299 0.2 1009556
18:00+9sse2591100 0.2 1010168
21:00+9se4792100 0.6 1011282
5 october, wed
wed500:00+9sse3791100 0.0 1011272
03:00+8sse2493100 0.1 1011135
06:00+8sse359391 0.0 1010160
09:00+8sse249469 0.0 1010186
12:00+10s2489100 0.0 1010373
15:00+10sse2387100 0.0 1010392
18:00+9sse2396100 0.4 1010162
21:00+9s249697 0.6 1009182
6 october, thu
thu600:00+8wsw378597 0.0 1010321
03:00+6ssw49898 0.0 1010318
06:00+5s5119476 0.0 1008366
09:00+7s71489100 0.0 1005604
12:00+9s81887100 0.1 1001792
15:00+10ssw81691100 1.1 9981004
18:00+10ssw71594100 1.3 996835
21:00+10w4994100 6.3 995669
7 october, fri
fri700:00+8w4889100 0.8 996471
03:00+7wsw41289100 0.8 997455
06:00+8wsw61189100 0.0 997873
09:00+7w61178100 0.1 999913
12:00+8w7117796 0.0 10001037
15:00+10w61374100 0.0 10021172
18:00+8w5118370 0.0 1005632
21:00+7wsw613885 0.0 1006670
8 october, sat
sat800:00+6sw5129199 0.0 1007462
03:00+6sw4109299 0.0 1007384
06:00+8ssw51290100 0.0 1005536
09:00+9ssw61392100 0.2 1003703
12:00+10ssw71391100 0.4 10021020
15:00+10ssw81485100 0.5 10011153
18:00+10ssw81580100 0.0 9991224
21:00+10ssw71285100 1.5 998988